H1 CPF  2  HTS 2024  4 24 12  115  1 etalon1    NONE
H2  8900103 0525    19751 2024 04 24  0  0  0 2024 04 29  0  0  0   900 1 1  0 0 0 1
H5  0.5580
H9
10 0 60427   59400.00000  0       5024841.429      10466073.392      22748997.749
10 0 60427   60300.00000  0       2224048.505      10772206.109      23043131.377
10 0 60427   61200.00000  0       -556612.092      11282678.745      22891121.310
10 0 60427   62100.00000  0      -3249312.193      11982504.890      22295542.503
10 0 60427   63000.00000  0      -5790188.586      12845148.682      21267548.494
10 0 60427   63900.00000  0      -8121753.476      13833597.982      19826687.685
10 0 60427   64800.00000  0     -10195046.254      14901898.657      18000557.679
10 0 60427   65700.00000  0     -11971436.837      15997088.582      15824301.540
10 0 60427   66600.00000  0     -13424004.394      17061452.500      13339952.978
10 0 60427   67500.00000  0     -14538432.275      18035004.465      10595640.734
10 0 60427   68400.00000  0     -15313379.760      18858093.801       7644665.714
10 0 60427   69300.00000  0     -15760313.109      19474024.059       4544467.658
10 0 60427   70200.00000  0     -15902801.449      19831572.700       1355501.156
10 0 60427   71100.00000  0     -15775306.189      19887302.420      -1859956.511
10 0 60427   72000.00000  0     -15421514.945      19607563.185      -5039041.013
10 0 60427   72900.00000  0     -14892291.168      18970096.844      -8119553.873
10 0 60427   73800.00000  0     -14243327.933      17965173.132     -11041205.540
10 0 60427   74700.00000  0     -13532607.629      16596206.218     -13746821.528
10 0 60427   75600.00000  0     -12817778.058      14879823.671     -16183485.270
10 0 60427   76500.00000  0     -12153559.109      12845383.785     -18303592.875
10 0 60427   77400.00000  0     -11589292.664      10533961.403     -20065797.257
10 0 60427   78300.00000  0     -11166741.749       7996845.563     -21435821.922
10 0 60427   79200.00000  0     -10918233.560       5293613.369     -22387128.029
10 0 60427   80100.00000  0     -10865225.463       2489862.551     -22901421.972
10 0 60427   81000.00000  0     -11017354.185       -345300.661     -22968994.544
10 0 60427   81900.00000  0     -11372007.085      -3141911.871     -22588886.615
10 0 60427   82800.00000  0     -11914431.622      -5831825.517     -21768880.044
10 0 60427   83700.00000  0     -12618375.997      -8351306.762     -20525316.203
10 0 60427   84600.00000  0     -13447231.368     -10643430.979     -18882747.911
10 0 60427   85500.00000  0     -14355625.026     -12660192.529     -16873433.728
10 0 60428       0.00000  0     -15291395.301     -14364237.433     -14536686.385
10 0 60428     900.00000  0     -16197863.492     -15730150.870     -11918089.646
10 0 60428    1800.00000  0     -17016306.289     -16745249.414      -9068600.036
10 0 60428    2700.00000  0     -17688524.508     -17409848.671      -6043551.664
10 0 60428    3600.00000  0     -18159400.608     -17736998.794      -2901583.747
10 0 60428    4500.00000  0     -18379338.586     -17751702.149        296488.519
10 0 60428    5400.00000  0     -18306485.236     -17489648.485       3488838.487
10 0 60428    6300.00000  0     -17908641.218     -16995522.358       6613806.485
10 0 60428    7200.00000  0     -17164783.400     -16320954.636       9611070.747
10 0 60428    8100.00000  0     -16066136.002     -15522203.959      12422789.951
10 0 60428    9000.00000  0     -14616746.533     -14657664.541      14994697.194
10 0 60428    9900.00000  0     -12833542.510     -13785303.385      17277126.323
10 0 60428   10800.00000  0     -10745865.876     -12960132.510      19225952.770
10 0 60428   11700.00000  0      -8394502.946     -12231820.198      20803432.561
10 0 60428   12600.00000  0      -5830247.901     -11642539.630      21978924.734
10 0 60428   13500.00000  0      -3112056.573     -11225143.734      22729484.223
10 0 60428   14400.00000  0       -304863.810     -11001742.120      23040314.148
10 0 60428   15300.00000  0       2522848.491     -10982739.946      22905068.489
10 0 60428   16200.00000  0       5301635.127     -11166380.075      22325998.306
10 0 60428   17100.00000  0       7963718.726     -11538809.619      21313937.033
10 0 60428   18000.00000  0      10445561.206     -12074670.607      19888122.910
10 0 60428   18900.00000  0      12690269.938     -12738192.826      18075859.369
10 0 60428   19800.00000  0      14649738.778     -13484745.830      15912017.129
10 0 60428   20700.00000  0      16286434.087     -14262787.363      13438384.895
10 0 60428   21600.00000  0      17574749.775     -15016128.018      10702878.797
10 0 60428   22500.00000  0      18501872.726     -15686417.620       7758624.011
10 0 60428   23400.00000  0      19068120.223     -16215748.220       4662925.223
10 0 60428   24300.00000  0      19286733.203     -16549262.497       1476145.646
10 0 60428   25200.00000  0      19183132.574     -16637654.995      -1739483.016
10 0 60428   26100.00000  0      18793669.183     -16439457.371      -4921095.066
10 0 60428   27000.00000  0      18163920.361     -15923007.462      -8006443.573
10 0 60428   27900.00000  0      17346606.134     -15068015.310     -10935144.349
10 0 60428   28800.00000  0      16399215.170     -13866656.656     -13649884.009
10 0 60428   29700.00000  0      15381443.453     -12324145.053     -16097565.714
10 0 60428   30600.00000  0      14352556.961     -10458756.643     -18230367.713
10 0 60428   31500.00000  0      13368792.767      -8301305.694     -20006692.041
10 0 60428   32400.00000  0      12480910.941      -5894093.047     -21391983.533
10 0 60428   33300.00000  0      11732002.508      -3289372.500     -22359402.643
10 0 60428   34200.00000  0      11155646.947       -547400.851     -22890339.174
10 0 60428   35100.00000  0      10774496.911       2265845.084     -22974757.845
10 0 60428   36000.00000  0      10599348.789       5081187.469     -22611370.481
10 0 60428   36900.00000  0      10628736.371       7828896.042     -21807633.418
10 0 60428   37800.00000  0      10849062.181      10441355.238     -20579572.371
10 0 60428   38700.00000  0      11235258.044      12855638.833     -18951440.441
10 0 60428   39600.00000  0      11751944.077      15015885.891     -16955218.093
10 0 60428   40500.00000  0      12355034.567      16875380.880     -14629966.797
10 0 60428   41400.00000  0      12993720.826      18398253.907     -12021050.528
10 0 60428   42300.00000  0      13612745.927      19560733.343      -9179241.503
10 0 60428   43200.00000  0      14154874.651      20351902.073      -6159728.303
10 0 60428   44100.00000  0      14563454.597      20773929.301      -3021045.966
10 0 60428   45000.00000  0      14784961.237      20841771.532        176051.354
10 0 60428   45900.00000  0      14771421.007      20582358.014       3369753.928
10 0 60428   46800.00000  0      14482612.064      20033296.820       6498374.683
10 0 60428   47700.00000  0      13887951.833      19241156.973       9501520.773
10 0 60428   48600.00000  0      12967993.562      18259398.922      12321237.512
10 0 60428   49500.00000  0      11715470.172      17146039.503      14903104.528
10 0 60428   50400.00000  0      10135842.065      15961147.952      17197264.973
10 0 60428   51300.00000  0       8247325.595      14764275.997      19159369.899
10 0 60428   52200.00000  0       6080399.745      13611927.565      20751421.396
10 0 60428   53100.00000  0       3676809.444      12555171.909      21942499.660
10 0 60428   54000.00000  0       1088104.185      11637498.248      22709360.983
10 0 60428   54900.00000  0      -1626230.693      10893000.445      23036895.509
10 0 60428   55800.00000  0      -4400976.086      10344967.142      22918435.675
10 0 60428   56700.00000  0      -7167626.734      10004936.700      22355908.401
10 0 60428   57600.00000  0      -9856986.029       9872257.641      21359826.484
10 0 60428   58500.00000  0     -12401802.870       9934174.891      19949117.152
10 0 60428   59400.00000  0     -14739342.762      10166440.575      18150788.495
10 0 60428   60300.00000  0     -16813786.926      10534426.288      15999437.430
10 0 60428   61200.00000  0     -18578359.238      10994692.559      13536605.953
10 0 60428   62100.00000  0     -19997091.047      11496951.421      10809995.711
10 0 60428   63000.00000  0     -21046148.208      11986340.590       7872554.176
10 0 60428   63900.00000  0     -21714662.479      12405913.522       4781448.980
10 0 60428   64800.00000  0     -22005030.045      12699239.311       1596949.991
10 0 60428   65700.00000  0     -21932662.620      12813000.586      -1618758.580
10 0 60428   66600.00000  0     -21525200.202      12699476.725      -4802811.504
10 0 60428   67500.00000  0     -20821218.162      12318803.876      -7892915.151
10 0 60428   68400.00000  0     -19868483.649      11640912.499     -10828592.349
10 0 60428   69300.00000  0     -18721836.350      10647056.883     -13552392.336
10 0 60428   70200.00000  0     -17440785.270       9330868.922     -16011039.350
10 0 60428   71100.00000  0     -16086925.752       7698889.245     -18156494.916
10 0 60428   72000.00000  0     -14721288.645       5770551.866     -19946911.056
10 0 60428   72900.00000  0     -13401736.170       3577622.468     -21347454.510
10 0 60428   73800.00000  0     -12180516.453       1163114.292     -22330985.294
10 0 60428   74700.00000  0     -11102081.097      -1420271.813     -22878576.584
10 0 60428   75600.00000  0     -10201258.041      -4112116.350     -22979866.691
10 0 60428   76500.00000  0      -9501855.897      -6846575.146     -22633237.783
10 0 60428   77400.00000  0      -9015756.788      -9554901.057     -21845819.802
10 0 60428   78300.00000  0      -8742533.311     -12168087.165     -20633321.700
10 0 60428   79200.00000  0      -8669602.675     -14619520.874     -19019695.545
10 0 60428   80100.00000  0      -8772908.181     -16847538.727     -17036642.234
99